Flag for Germany Weather past 2 weeks in Porta Westfalica, North Rhine-Westphalia, Germany

Now
39 °F

Chilly.


Feels Like: 32 °F
Forecast: 32 / 38 °F
Wind: 12 mph from Northwest

Location: Bueckeburg

Current Time: Dec 25, 2014 at 8:14:59 PM

Latest Report: Dec 25, 2014 at 7:20 PM


Visibility: N/A

Pressure: 30.21 "Hg

Humidity: 75%

Dew point: 32 °F

Location of Porta WestfalicaLocation

Historic Weather in Porta Westfalica — Graph

°F

Porta Westfalica temperature yesterday

Maximum temperature yesterday: 50 °F (at 12:20 AM)
Minimum temperature yesterday: 39 °F (at 11:20 PM)
Average temperature yesterday: 46 °F

Past Weeks' High & Low Weather Summary

 TemperatureHumidityPressure
High54 °F (Dec 18, 2:20 PM)94% (Dec 18, 12:20 AM)30.30 "Hg (Dec 18, 12:20 AM)
Low34 °F (Dec 14, 9:20 PM)61% (Dec 15, 8:20 AM)29.30 "Hg (Dec 12, 3:20 PM)
Average44 °F84%29.85 "Hg
* Reported Dec 10 6:20 PM — Dec 25 6:20 PM, Porta Westfalica, Weather by CustomWeather, © 2014

Note: Actual official high and low records may vary slightly from our data, if they occured in-between our weather recording intervals... More about our weather records

Advertising

Porta Westfalica weather history for previous 24 hours

 ConditionsComfort  
Time TempWeatherWind HumidityBarometerVisibility
6:20 PM
Dec 25
39 °FChilly.17 mph75%30.18 "HgN/A
5:20 PM41 °FQuite cool.15 mph66%30.12 "HgN/A
4:20 PM43 °FQuite cool.17 mph61%30.09 "HgN/A
3:20 PM43 °FQuite cool.20 mph66%30.09 "HgN/A
2:20 PM43 °FQuite cool.18 mph71%30.09 "Hg6 mi
1:20 PM45 °FQuite cool.21 mph71%30.07 "Hg6 mi
12:20 PM43 °FQuite cool.18 mph81%30.07 "Hg6 mi
11:20 AM43 °FQuite cool.16 mph81%30.07 "Hg6 mi
10:20 AM41 °FQuite cool.18 mph87%30.04 "Hg4 mi
9:20 AM41 °FQuite cool.17 mph87%30.04 "Hg4 mi
8:20 AM41 °FQuite cool.20 mph81%30.01 "Hg5 mi
7:20 AM41 °FQuite cool.17 mph81%29.98 "Hg6 mi
6:20 AM41 °FQuite cool.18 mph81%30.01 "Hg6 mi
5:20 AM41 °FQuite cool.20 mph81%30.01 "Hg6 mi
4:20 AM41 °FQuite cool.18 mph81%30.01 "Hg6 mi
3:20 AM39 °FChilly.15 mph81%30.01 "Hg6 mi
2:20 AM39 °FChilly.14 mph81%30.01 "Hg6 mi
1:20 AM39 °FChilly.15 mph81%30.01 "Hg6 mi
12:20 AM39 °FChilly.14 mph81%30.01 "Hg6 mi
11:20 PM
Dec 24
39 °FChilly.13 mph87%30.01 "Hg6 mi
10:20 PM41 °FQuite cool.13 mph81%29.98 "HgN/A
9:20 PM41 °FQuite cool.15 mph81%29.98 "HgN/A
8:20 PM43 °FQuite cool.13 mph87%29.95 "Hg6 mi
Weather by CustomWeather, © 2014

See weather overviewHow to use our weather pages